Location: Vienna
(48.2082°N, 16.3738°E)
Time: 02:43:45
(UTC+02:00)

ISS - Visible Passes

Search period start: 30 March 2017 00:00
Search period end: 09 April 2017 00:00
Orbit: 399 x 409 km, 51.6° (Epoch: 30 March)

Date Brightness Start Highest point End Pass type
(mag) Time Alt. Az. Time Alt. Az. Time Alt. Az.
30 Mar -4.0 20:50:39 10° WSW 20:53:55 79° SSE 20:55:20 31° ENE visible
30 Mar -0.8 22:27:24 10° W 22:28:00 14° WNW 22:28:00 14° WNW visible
31 Mar -3.6 19:58:25 10° SW 20:01:35 50° SSE 20:04:46 10° ENE visible
31 Mar -3.1 21:34:53 10° W 21:38:05 51° N 21:38:05 51° N visible
01 Apr -3.5 20:42:23 10° W 20:45:38 65° NNW 20:48:01 17° ENE visible
01 Apr -1.3 22:19:15 10° WNW 22:20:40 22° WNW 22:20:40 22° WNW visible
02 Apr -2.9 21:26:44 10° WNW 21:29:53 44° N 21:30:29 39° NNE visible
03 Apr -3.0 20:34:12 10° W 20:37:22 48° N 20:40:13 12° ENE visible
03 Apr -1.8 22:10:58 10° WNW 22:12:52 29° NW 22:12:52 29° NW visible
04 Apr -3.0 21:18:30 10° WNW 21:21:40 44° N 21:22:32 35° NE visible
04 Apr -0.5 22:55:01 10° WNW 22:55:11 11° WNW 22:55:11 11° WNW visible
05 Apr -2.9 20:25:58 10° WNW 20:29:07 43° N 20:32:10 11° ENE visible
05 Apr -2.4 22:02:35 10° WNW 22:04:48 39° NW 22:04:48 39° NW visible
06 Apr -3.4 21:10:08 10° WNW 21:13:21 54° NNE 21:14:25 35° ENE visible
06 Apr -0.7 22:46:40 10° WNW 22:47:03 13° WNW 22:47:03 13° WNW visible
07 Apr -3.0 20:17:38 10° WNW 20:20:48 46° N 20:23:58 10° E visible
07 Apr -3.0 21:54:08 10° WNW 21:56:38 47° W 21:56:38 47° W visible
08 Apr -3.9 21:01:39 10° WNW 21:04:56 80° NNE 21:06:14 34° ESE visible
08 Apr -0.8 22:38:29 10° W 22:38:52 12° W 22:38:52 12° W visible
